TimeCDT,TemperatureF,Dew PointF,Humidity,Sea Level PressureIn,VisibilityMPH,Wind Direction,Wind SpeedMPH,Gust SpeedMPH,PrecipitationIn,Events,Conditions,WindDirDegrees,DateUTC
12:15 AM,48.9,45.9,89,30.11,10.0,ESE,9.2,-,N/A,,Clear,110,2013-10-15 05:15:00
12:35 AM,48.6,45.7,90,30.10,10.0,ESE,8.1,-,N/A,,Clear,110,2013-10-15 05:35:00
12:55 AM,49.1,46.0,89,30.08,10.0,ESE,6.9,-,N/A,,Clear,110,2013-10-15 05:55:00
1:15 AM,48.7,45.5,89,30.08,10.0,ESE,4.6,-,N/A,,Clear,110,2013-10-15 06:15:00
1:35 AM,47.7,44.8,90,30.07,10.0,ESE,3.5,-,N/A,,Clear,120,2013-10-15 06:35:00
1:55 AM,47.3,44.6,90,30.08,10.0,ESE,3.5,-,N/A,,Clear,120,2013-10-15 06:55:00
2:15 AM,47.5,44.8,90,30.07,10.0,East,4.6,-,N/A,,Clear,100,2013-10-15 07:15:00
2:35 AM,51.3,47.7,87,30.06,10.0,SE,6.9,-,N/A,,Scattered Clouds,130,2013-10-15 07:35:00
2:55 AM,51.4,46.9,85,30.04,10.0,SE,9.2,-,N/A,,Scattered Clouds,130,2013-10-15 07:55:00
3:15 AM,51.6,46.9,84,30.03,10.0,SE,8.1,-,N/A,,Scattered Clouds,130,2013-10-15 08:15:00
3:35 AM,54.0,48.9,83,30.02,10.0,SE,11.5,-,N/A,,Overcast,130,2013-10-15 08:35:00
3:55 AM,54.0,47.7,79,30.01,10.0,SE,12.7,-,N/A,,Overcast,130,2013-10-15 08:55:00
4:15 AM,54.0,47.1,78,30.00,10.0,SE,10.4,-,N/A,,Overcast,130,2013-10-15 09:15:00
4:35 AM,54.0,46.4,76,29.99,10.0,SE,11.5,17.3,N/A,,Overcast,130,2013-10-15 09:35:00
4:55 AM,54.3,45.9,73,29.99,10.0,SE,11.5,-,N/A,,Mostly Cloudy,140,2013-10-15 09:55:00
5:15 AM,54.5,45.9,73,29.98,10.0,SE,10.4,-,N/A,,Overcast,140,2013-10-15 10:15:00
5:35 AM,54.7,46.4,74,29.98,10.0,SSE,9.2,-,N/A,,Overcast,150,2013-10-15 10:35:00
5:55 AM,54.5,46.0,73,29.97,10.0,SSE,6.9,-,N/A,,Overcast,150,2013-10-15 10:55:00
6:15 AM,54.0,47.5,79,29.96,10.0,SE,8.1,-,N/A,,Light Drizzle,130,2013-10-15 11:15:00
6:35 AM,54.0,49.3,84,29.96,7.0,SE,10.4,-,N/A,Rain,Light Rain,140,2013-10-15 11:35:00
6:55 AM,54.0,50.0,86,29.94,10.0,SSE,5.8,-,N/A,,Light Drizzle,150,2013-10-15 11:55:00
7:15 AM,54.0,49.8,86,29.93,10.0,SSE,5.8,-,N/A,,Overcast,150,2013-10-15 12:15:00
7:35 AM,54.0,50.0,86,29.93,10.0,SSE,11.5,-,N/A,,Overcast,160,2013-10-15 12:35:00
7:55 AM,54.0,50.7,89,29.93,4.0,SSE,9.2,-,0.02,,Heavy Drizzle,150,2013-10-15 12:55:00
8:15 AM,54.0,51.8,92,29.92,4.0,SE,9.2,-,0.02,Rain,Rain,140,2013-10-15 13:15:00
8:35 AM,54.0,51.8,92,29.93,3.0,SSE,9.2,-,0.07,Rain,Rain,150,2013-10-15 13:35:00
8:55 AM,54.0,51.8,92,29.92,5.0,SSE,9.2,-,0.08,Rain,Rain,150,2013-10-15 13:55:00
9:15 AM,54.0,51.8,92,29.92,2.0,South,8.1,-,0.04,Rain,Rain,170,2013-10-15 14:15:00
9:35 AM,54.0,52.0,93,29.90,2.0,SSE,12.7,16.1,0.12,Rain,Light Rain,150,2013-10-15 14:35:00
9:55 AM,54.0,52.0,93,29.87,3.0,SE,12.7,17.3,0.13,Rain,Rain,140,2013-10-15 14:55:00
10:15 AM,54.1,52.3,94,29.88,3.0,SSE,12.7,-,0.02,Rain,Light Rain,160,2013-10-15 15:15:00
10:35 AM,55.4,53.2,92,29.87,4.0,SSE,15.0,23.0,0.04,Rain,Light Rain,160,2013-10-15 15:35:00
10:55 AM,56.5,54.5,93,29.86,4.0,South,15.0,20.7,0.04,,Overcast,170,2013-10-15 15:55:00
11:15 AM,56.5,54.5,93,29.86,2.5,South,12.7,-,N/A,,Overcast,170,2013-10-15 16:15:00
11:35 AM,59.0,57.2,94,29.85,2.0,South,12.7,20.7,N/A,,Overcast,180,2013-10-15 16:35:00
11:55 AM,59.0,57.2,94,29.85,2.5,South,13.8,-,N/A,,Overcast,190,2013-10-15 16:55:00
12:15 PM,59.0,57.2,94,29.84,3.0,South,15.0,-,N/A,,Overcast,190,2013-10-15 17:15:00
12:35 PM,59.2,57.4,94,29.83,3.0,South,13.8,19.6,N/A,,Overcast,190,2013-10-15 17:35:00
12:55 PM,60.8,58.8,93,29.82,4.0,SSW,13.8,-,N/A,,Overcast,200,2013-10-15 17:55:00
1:15 PM,61.7,59.4,92,29.82,4.0,SSW,12.7,-,N/A,,Overcast,210,2013-10-15 18:15:00
1:35 PM,61.7,59.4,92,29.81,2.5,SSW,10.4,-,N/A,,Overcast,200,2013-10-15 18:35:00
1:55 PM,62.6,60.4,93,29.79,5.0,SSW,11.5,-,N/A,,Overcast,200,2013-10-15 18:55:00
2:15 PM,64.0,60.8,89,29.79,7.0,SSW,12.7,-,N/A,,Mostly Cloudy,210,2013-10-15 19:15:00
2:35 PM,65.8,61.5,86,29.78,10.0,SSW,15.0,-,N/A,,Mostly Cloudy,210,2013-10-15 19:35:00
2:55 PM,65.3,60.3,84,29.77,10.0,SW,11.5,18.4,N/A,,Mostly Cloudy,220,2013-10-15 19:55:00
3:15 PM,64.9,59.4,82,29.78,10.0,West,16.1,23.0,N/A,,Overcast,260,2013-10-15 20:15:00
3:35 PM,64.0,58.6,83,29.79,10.0,WSW,13.8,21.9,N/A,,Overcast,250,2013-10-15 20:35:00
3:55 PM,64.0,57.6,79,29.79,10.0,WSW,13.8,20.7,N/A,,Overcast,240,2013-10-15 20:55:00
4:15 PM,64.0,54.9,72,29.79,10.0,WSW,19.6,26.5,N/A,,Mostly Cloudy,240,2013-10-15 21:15:00
4:35 PM,63.0,52.5,69,29.80,10.0,WSW,15.0,21.9,N/A,,Scattered Clouds,250,2013-10-15 21:35:00
4:55 PM,62.1,50.9,67,29.80,10.0,West,13.8,19.6,N/A,,Scattered Clouds,260,2013-10-15 21:55:00
5:15 PM,61.7,49.5,64,29.81,10.0,West,15.0,23.0,N/A,,Clear,260,2013-10-15 22:15:00
5:35 PM,61.0,50.0,67,29.82,10.0,West,15.0,20.7,N/A,,Clear,270,2013-10-15 22:35:00
5:55 PM,59.0,48.4,68,29.82,10.0,WSW,15.0,21.9,N/A,,Clear,250,2013-10-15 22:55:00
6:15 PM,56.5,46.0,68,29.83,10.0,West,12.7,19.6,N/A,,Clear,260,2013-10-15 23:15:00
6:35 PM,55.6,45.5,69,29.83,10.0,WSW,11.5,17.3,N/A,,Clear,250,2013-10-15 23:35:00
6:55 PM,54.0,45.0,72,29.84,10.0,WSW,9.2,-,N/A,,Clear,250,2013-10-15 23:55:00
7:15 PM,54.0,45.9,74,29.84,10.0,WSW,8.1,-,N/A,,Clear,250,2013-10-16 00:15:00
7:55 PM,54.0,46.9,77,29.86,10.0,WSW,8.1,-,N/A,,Clear,250,2013-10-16 00:55:00
8:15 PM,53.8,46.9,78,29.86,10.0,West,9.2,-,N/A,,Clear,260,2013-10-16 01:15:00
8:35 PM,52.0,45.0,77,29.85,10.0,West,10.4,-,N/A,,Clear,260,2013-10-16 01:35:00
8:55 PM,51.4,44.2,76,29.86,10.0,WSW,9.2,-,N/A,,Clear,250,2013-10-16 01:55:00
9:15 PM,51.4,43.7,75,29.86,10.0,WSW,8.1,-,N/A,,Clear,250,2013-10-16 02:15:00
9:35 PM,51.4,44.2,76,29.86,10.0,West,10.4,-,N/A,,Clear,260,2013-10-16 02:35:00
9:55 PM,51.4,44.6,77,29.87,10.0,West,11.5,18.4,N/A,,Clear,260,2013-10-16 02:55:00
10:15 PM,49.6,42.8,77,29.87,10.0,West,11.5,-,N/A,,Clear,260,2013-10-16 03:15:00
10:35 PM,49.1,42.8,79,29.87,10.0,WSW,8.1,-,N/A,,Clear,240,2013-10-16 03:35:00
10:55 PM,48.0,42.3,80,29.87,10.0,WSW,8.1,-,N/A,,Scattered Clouds,240,2013-10-16 03:55:00
11:15 PM,48.0,42.6,82,29.86,10.0,SW,8.1,-,N/A,,Mostly Cloudy,230,2013-10-16 04:15:00
11:35 PM,49.1,43.3,81,29.86,10.0,WSW,10.4,-,N/A,,Mostly Cloudy,240,2013-10-16 04:35:00
11:55 PM,49.1,43.3,81,29.86,10.0,WSW,10.4,-,N/A,,Mostly Cloudy,240,2013-10-16 04:55:00